Location: Beaurecueil
(43.5122°N, 5.5450°E)
Time: 17:07:54
(UTC+00:00)

Cosmos 1674 - Pass Details

Date: 18 September 2020
Orbit: 495 x 517 km, 82.5° (Epoch: 20 October)

Event Time Altitude Azimuth Distance (km) Brightness Sun altitude
Rises 19:04:11 0° 3° (N) 2,650 6.5 -15.5°
Reaches altitude 10° 19:06:36 10° 16° (NNE) 1,758 5.4 -15.9°
Enters shadow 19:09:35 26° 66° (ENE) 1,056 3.8 -16.4°
